Regional Weather Roundup
Issued by NWS

Home | Current Version | Previous Version | Graphics & Text | Print | Product List | Glossary On
Versions: 1 2 3 4 5 6 7 8 9 10 11 12 13 14 15 16 17 18 19 20 21 22 23 24 25 26 27 28 29 30 31 32 33 34 35 36 37 38 39 40 41 42 43 44 45 46 47 48 49 50
000
ASUS43 KIND 171659
RWRIN

WEATHER ROUNDUP FOR INDIANA
NATIONAL WEATHER SERVICE INDIANAPOLIS IN
100 PM EDT FRI APR 17 2015

NOTE: "FAIR" INDICATES FEW OR NO CLOUDS BELOW 12,000 FEET WITH NO
SIGNIFICANT WEATHER AND/OR OBSTRUCTIONS TO VISIBILITY.

* - STATION DOES NOT REPORT WEATHER SUCH AS PRECIPITATION OR FOG.

+ - STATION NOT QUALITY CONTROLLED BY THE NATIONAL WEATHER SERVICE.
    USE DATA WITH CAUTION...ESPECIALLY DEWPOINT AND RELATIVE
    HUMIDITY OBSERVATIONS.

INZ001>003-010>013-019-020-171800-
NORTHWEST INDIANA

CITY           SKY/WX    TMP DP  RH WIND       PRES   REMARKS
GARY /AIRPORT/ MOSUNNY   75  39  27 W7        30.10S
RENSSELAER +   SUNNY     72  46  40 NE3       30.10F

$$

LMZ046-743>745-171800-
SOUTHERN LAKE MICHIGAN

STATION/POSITION TIME  TEMP WIND        PRES
                       AIR  DIR/SP/G
                 (UTC) (F)  (DEG/KT/KT) (MB)
BURNS HARBOR     1600   64  250/  4/  4 1019.6F
MICHIGAN CITY    1600   62  220/  7/  8   N/A

$$

INZ004-005-014>016-021>024-171800-
NORTH CENTRAL INDIANA

CITY           SKY/WX    TMP DP  RH WIND       PRES   REMARKS
ELKHART        SUNNY     72  41  33 S5        30.09F
GOSHEN         SUNNY     70  49  47 NW7       30.09F
SOUTH BEND     PTSUNNY   73  45  36 NW12      30.09F

$$

INZ006>009-017-018-025>027-171800-
NORTHEAST INDIANA

CITY           SKY/WX    TMP DP  RH WIND       PRES   REMARKS
ANGOLA *+      SUNNY     72  45  37 CALM      30.08F
FORT WAYNE     PTSUNNY   71  41  33 MISG      30.11F

$$

INZ028-029-035-036-043>045-051>053-171800-
WEST CENTRAL INDIANA

CITY           SKY/WX    TMP DP  RH WIND       PRES   REMARKS
CRAWFORDSVL +  SUNNY     69  38  32 CALM      30.11F
GREENCASTLE +  MOSUNNY   68  45  42 SE8       30.12F
LAFAYETTE      SUNNY     69  46  43 CALM      30.10F
TERRE HAUTE    MOSUNNY   70  52  52 E3        30.11F

$$

INZ030>032-037>040-046>048-054>057-064-065-171800-
CENTRAL INDIANA

CITY           SKY/WX    TMP DP  RH WIND       PRES   REMARKS
ANDERSON       SUNNY     68  41  37 CALM      30.12F
COLUMBUS       SUNNY     68  46  45 CALM      30.12F
INDIANAPOLIS   PTSUNNY   70  43  37 VRB3      30.10F
-EAGLE CREEK   SUNNY     70  48  45 E7        30.11F
KOKOMO *+      SUNNY     72  48  43 N6        30.11S
MT COMFORT *+  SUNNY     72  21  15 NE3       30.12F
SHELBYVILLE    SUNNY     72  43  35 N3        30.11F

$$

INZ033-034-041-042-049-050-058-059-171800-
EAST CENTRAL INDIANA

CITY           SKY/WX    TMP DP  RH WIND       PRES   REMARKS
MUNCIE         SUNNY     70  48  45 N8        30.11F

$$

INZ060-061-067>069-081>083-085>088-171800-
SOUTHWEST INDIANA

CITY           SKY/WX    TMP DP  RH WIND       PRES   REMARKS
EVANSVILLE     PTSUNNY   72  60  66 SE7       30.09F
HUNTINGBURG *+   N/A     72  57  60 E3        30.09F

$$

INZ062-063-066-070>080-084-089>092-171800-
SOUTH CENTRAL AND SOUTHEAST INDIANA

CITY           SKY/WX    TMP DP  RH WIND       PRES   REMARKS
BLOOMINGTON    MOSUNNY   71  50  47 N3        30.10F
MADISON *+     MOSUNNY   72  50  46 NE3       30.12F

$$



USA.gov is the U.S. government's official web portal to all federal, state and local government web resources and services.